{"data":{"norad_id":66981,"epoch":"2026-05-25T04:14:33.957024Z","epoch_age_seconds":70522,"freshness":"FRESH","line1":"1 66981U 25288Y   26145.17678191  .00019507  00000+0  71624-3 0  9997","line2":"2 66981  42.9988 311.6252 0001455 281.8534  78.2154 15.27592890 26988","mean_motion":15.2759289,"eccentricity":0.0001455,"inclination_deg":42.9988,"raan_deg":311.6252,"arg_perigee_deg":281.8534,"mean_anomaly_deg":78.2154,"bstar":0.00071624,"rev_number":2698,"period_min":94.265953280262,"perigee_km":482.0122020528,"apogee_km":484.00879597501,"semimajor_km":6861.1474990139,"source":"CELESTRAK","updated_at":"2026-05-25T13:38:21.427329Z"}}